Aérodrome :
LOGIN :

S'inscrire | Disclaimer

   EN    FR    IT 

 










Légende :    VFR   VFR Marginal   IFR   IFR Intensif   IFR Très Intensif
Visi : 
Plafond : 
>= 8 km
>= 3000ft
5 à 8 km
1000 à 3000 ft
1500m à 5 km
500 à 1000 ft
800 à 1500m
200 à 500 ft
< 800m
< 200 ft
Symboles :   Orages  Brouillard  Fortes neiges  Fortes précipitations  Vent > 20 kt
SIGMETs :   Divers  Orages  Givrage  Turbulence  Onde Orograph.  Cendres Volcan.







- Altitude de l'aérodrome : 47 ft
- Code IATA : CBG
- Voir les cartes d'approche


EGSC - Cambridge

DERNIER METAR :
  • 161220Z 21011KT 8000 FEW002 BKN005 09/08 Q1002

METARs EXPIRÉS :
  • 161150Z 22008KT 9000 FEW005 BKN008 09/08 Q1002
  • 161120Z 21009KT 8000 FEW005 BKN008 09/08 Q1003 RERADZ
  • 161050Z 21010KT 4200 RADZ SCT005 BKN008 09/07 Q1003
  • 161020Z 21009KT 9999 -DZ FEW005 BKN008 09/08 Q1004
  • 160950Z 20012KT 8000 -DZ FEW005 BKN008 09/07 Q1004

TAF AMD TAF EGSC
Valide du 16 à 12h jusqu'au 16 à 21h UTC


161210Z 1612/1621 21014KT 9999 SCT016
TEMPO 1612/1618 7000 RA BKN008
PROB30
TEMPO 1613/1618 23015G25KT 4000 +RA
BECMG 1615/1618 27009KT
Pas de NOTAMs connus pour ce terrain.



MET'MAP, la Météo Aéronautique d'un coup d'oeil ! - Copyright ORBIFLY Décembre 2007 - Disclaimer

ORBIFLY MET'MAP TEAM :

Programmation & Développement : Alexandra Zaïnal
Conception & Développement : Baudouin d'Aumeries
Co-Programmation & Développement : Marc-Olivier Méhu
Soutien technique & logistique : Manuel Goepfert

Contact : metmap@orbifly.com




SOURCES & CREDITS :

   NOAA